Regional Weather Roundup
Issued by NWS

Home | Current Version | Previous Version | Text Only | Print | Product List | Glossary Off
Versions: 1 2 3 4 5 6 7 8 9 10 11 12 13 14 15 16 17 18 19 20 21 22 23 24 25 26 27 28 29 30 31 32 33 34 35 36 37 38 39 40 41 42 43 44 45 46 47 48 49 50

136
ASUS43 KTOP 122159
RWRKS

WEATHER ROUNDUP FOR KANSAS
NATIONAL WEATHER SERVICE GOODLAND KS
400 PM CST FRI FEB 12 2016

NOTE:  "FAIR" INDICATES FEW OR NO CLOUDS BELOW 12,000 FEET WITH NO
SIGNIFICANT WEATHER AND/OR OBSTRUCTIONS TO VISIBILITY.

KSZ001>006-013>018-027>032-041>047-122300-
NORTHWEST KANSAS

CITY           SKY/WX    TMP DP  RH WIND       PRES   REMARKS
GOODLAND       CLOUDY    34  30  85 E14       30.34S WCI  25
HAYS           CLOUDY    37  21  52 E7        30.44R
HILL CITY      CLOUDY    37  28  70 E8        30.43S
RUSSELL        CLOUDY    36  27  69 NE12      30.43R WCI  28
$$

KSZ061>065-074>080-084>089-122300-
SOUTHWEST KANSAS

CITY           SKY/WX    TMP DP  RH WIND       PRES   REMARKS
DODGE CITY     MOSUNNY   41  28  60 E13       30.38S
ELKHART          N/A     61  29  29 SE14        N/A
GARDEN CITY    SUNNY     44  31  60 E16       30.33F
GREAT BEND     CLOUDY    36  21  55 NE9       30.44R
LIBERAL        SUNNY     59  30  33 SE13      30.32S
$$

KSZ066>073-081>083-090>101-122300-
SOUTHEAST KANSAS

CITY           SKY/WX    TMP DP  RH WIND       PRES   REMARKS
CHANUTE        SUNNY     45  25  45 N13G22    30.41R
COFFEYVILLE    SUNNY     47  26  44 N8        30.41R
HUTCHINSON     MOSUNNY   38  25  59 NE10      30.44R WCI  31
MEDICINE LODGE   N/A     44  28  53 NE12      30.41S
NEWTON         MOSUNNY   36  21  55 NE13G18   30.45R WCI  27
PARSONS        SUNNY     47  27  45 N9        30.41S
WICHITA INTL   CLOUDY    42  26  53 N12       30.43R
WICHITA JABRA  MOSUNNY   39  25  57 N14       30.43R WCI  31
WINFIELD       SUNNY     48  27  44 N15       30.42R
$$

KSZ007>012-019>026-033>040-048>060-102>105-122300-
NORTHEAST KANSAS

CITY           SKY/WX    TMP DP  RH WIND       PRES   REMARKS
CONCORDIA      CLOUDY    31  22  69 N17       30.48R WCI  19
EMPORIA        SUNNY     39  22  50 N17G26    30.42S WCI  30
LAWRENCE       SUNNY     36  15  42 N17G25    30.47R WCI  26
MANHATTAN      PTSUNNY   36  22  56 N12       30.49R WCI  28
OLATHE IND     SUNNY     35  15  44 N22       30.44R WCI  23
OLATHE EXE     SUNNY     36  14  40 N16       30.43R WCI  26
SALINA         CLOUDY    38  23  55 NE16      30.47R WCI  29
TOPEKA BILLARD SUNNY     37  16  42 N15G21    30.47R WCI  28
TOPEKA FORBES  SUNNY     39  17  41 N14G24    30.45R WCI  31
$$




USA.gov is the U.S. government's official web portal to all federal, state and local government web resources and services.